Regional Weather Roundup
Issued by NWS Raleigh/Durham, NC

Home | Current Version | Previous Version | Text Only | Print | Product List | Glossary On
Versions: 1 2 3 4 5 6 7 8 9 10 11 12 13 14 15 16 17 18 19 20 21 22 23 24 25 26 27 28 29 30 31 32 33 34 35 36 37 38 39 40 41 42 43 44 45 46 47 48 49 50
000
ASUS42 KRAH 261310
RWRRAH
NORTH CAROLINA WEATHER ROUNDUP
NATIONAL WEATHER SERVICE RALEIGH NC
800 AM EST WED NOV 26 2014

NOTE: "FAIR" INDICATES FEW OR NO CLOUDS BELOW 12,000 FEET WITH NO
SIGNIFICANT WEATHER AND/OR OBSTRUCTIONS TO VISIBILITY.

NCZ001-053-055-056-065-067-261400-
WESTERN NORTH CAROLINA

CITY           SKY/WX    TMP DP  RH WIND       PRES   REMARKS
ASHEVILLE      LGT RAIN  40  36  86 N6        30.00R
JEFFERSON      LGT SNOW  32  32 100 CALM      29.95S VSB 3/4
MORGANTON      RAIN      43  43 100 CALM      30.04R
HICKORY        RAIN      43  41  93 N7        29.97R FOG
RUTHERFORDTON  RAIN      43  43 100 W6        30.02R
MOUNT AIRY     RAIN      42  39  90 N8        30.00S
BOONE          LGT SNOW  33  33 100 CALM      29.95R VSB 1
$$

NCZ021-022-025-041-071-084-088-261400-
CENTRAL NORTH CAROLINA

CITY           SKY/WX    TMP DP  RH WIND       PRES   REMARKS
CHARLOTTE      RAIN      45  41  86 N7        29.98R
GREENSBORO     RAIN      43  42  97 N6        29.96R FOG
WINSTON-SALEM  LGT RAIN  42  39  89 NE10      29.98R
RALEIGH-DURHAM RAIN      46  42  86 NE16G30   29.90S FOG
FORT BRAGG     LGT RAIN  48  46  93 N15G21    29.87R
FAYETTEVILLE   CLOUDY    50  48  93 N18G28    29.84R
BURLINGTON     RAIN      45  41  86 N12       29.95R FOG
LAURINBURG     LGT RAIN  48  46  93 N18       29.90R
$$

NCZ011-015-027-028-043-044-047-080-103-261400-
NORTHEASTERN NORTH CAROLINA

CITY           SKY/WX    TMP DP  RH WIND       PRES   REMARKS
ROCKY MT-WILSO RAIN      46  44  93 N21G28    29.87F FOG
GREENVILLE     LGT RAIN  46  46 100 N20G28    29.85F
WASHINGTON     CLOUDY    54  52  94 N24       29.78S
ELIZABETH CITY RAIN      55  51  86 NE21G29   29.78F FOG
MANTEO         RAIN      64  63  97 CALM      29.78F
CAPE HATTERAS  LGT RAIN  70  69  97 S18G26    29.78F FOG
$$

NCZ078-087-090-091-093-098-101-261400-
SOUTHEASTERN NORTH CAROLINA

CITY           SKY/WX    TMP DP  RH WIND       PRES   REMARKS
LUMBERTON      CLOUDY    52  49  89 NW14G29   29.86R
GOLDSBORO      LGT RAIN  48  48 100 N15G23    29.81R FOG
KENANSVILLE    LGT RAIN  51  50  97 N17       29.79S
NEW BERN       LGT RAIN  66  63  90 SE7G16    29.75F
CHERRY POINT   CLOUDY    63  62  97 CALM      29.75F
BEAUFORT       LGT RAIN  70  69  97 S13       29.76F FOG
JACKSONVILLE   CLOUDY    67  65  93 SE3       29.72F
WILMINGTON     CLOUDY    73  66  78 S15G24    29.72F
$$



USA.gov is the U.S. government's official web portal to all federal, state and local government web resources and services.